Overview Statistics Trail Chart Weather Telemetry Raw packets
 

This is the latest recevied weather packets stored in our database for station/object WW3TRG. If no packets are shown the sender has not sent any weather packets the latest 10 day(s).

<< 108 109 110 111 112 >>
Time Temp. Humidity Pressure Rain* Wind** Luminosity Snow
1787773765 27.78° C 50% 1016.9 hPa 0 mm - 78 W/m² -
1787773460 28.33° C 43% 1016.9 hPa 0 mm - 155 W/m² -
1787773155 28.89° C 43% 1017 hPa 0 mm - 478 W/m² -
1787772851 29.44° C 47% 1017.1 hPa 0 mm - 527 W/m² -
1787772550 28.89° C 45% 1016.9 hPa 0 mm - 472 W/m² -
1787772249 28.33° C 44% 1017 hPa 0 mm - 376 W/m² -
1787771947 28.33° C 46% 1017.1 hPa 0 mm - 480 W/m² -
1787771642 28.33° C 47% 1017.1 hPa 0 mm - 141 W/m² -
1787771337 27.78° C 44% 1016.9 hPa 0 mm - 391 W/m² -
1787771032 28.33° C 44% 1017.3 hPa 0 mm - 401 W/m² -
1787770731 28.33° C 45% 1017.2 hPa 0 mm - 283 W/m² -
1787770425 28.89° C 44% 1017.3 hPa 0 mm - 109 W/m² -
1787770124 28.33° C 54% 1017.3 hPa 0 mm - 668 W/m² -
1787769824 27.78° C 49% 1017.3 hPa 0 mm - 82 W/m² -
1787769518 28.33° C 45% 1017.3 hPa 0 mm - 637 W/m² -
1787769218 28.89° C 44% 1017.5 hPa 0 mm - 558 W/m² -
1787768912 28.33° C 48% 1017.6 hPa 0 mm - 630 W/m² -
1787768608 28.33° C 52% 1017.6 hPa 0 mm - 245 W/m² -
1787768305 27.78° C 47% 1017.7 hPa 0 mm - 461 W/m² -
1787768000 28.89° C 48% 1017.8 hPa 0 mm - 582 W/m² -
1787767695 28.33° C 54% 1017.7 hPa 0 mm - 681 W/m² -
1787767395 27.78° C 50% 1017.7 hPa 0 mm - 276 W/m² -
1787767093 27.78° C 50% 1017.9 hPa 0 mm - 104 W/m² -
1787766792 27.78° C 47% 1017.8 hPa 0 mm - 683 W/m² -
1787766492 27.78° C 55% 1017.9 hPa 0 mm - 514 W/m² -

* Rain latest hour (hover to see other rain measurements)
** Current wind speed in m/s (hover to see current wind gust speed)